Powrót do katalogu

STARLINK-31193

AktywnyŁącznośćVLEO
NORAD 58797·PAYLOAD·🇺🇸 United States

Wystrzelony Jan 15, 2024 z Cape Canaveral Space Force Station

Loading…

Następne Przeloty (najbliższe 24 godziny)

TLE

ŚwieżeSource: CelesTrak SupGP

Epoka: Sep 15, 2026, 02:31 UTC

1 58797C 24012L   26258.10534722 -.00010919  00000+0 -39555-3 0  2581
2 58797  43.0023 175.4567 0001502 270.8297 157.2841 15.27577264    13

Śledź STARLINK-31193 w czasie rzeczywistym z AllMySat

Download on the App Store